Regional Weather Roundup
Issued by NWS

Home | Current Version | Previous Version | Text Only | Print | Product List | Glossary On
Versions: 1 2 3 4 5 6 7 8 9 10 11 12 13 14 15 16 17 18 19 20 21 22 23 24 25 26 27 28 29 30 31 32 33 34 35 36 37 38 39 40 41 42 43 44 45 46 47 48 49 50
000
ASUS43 KTOP 261759
RWRKS

WEATHER ROUNDUP FOR KANSAS
NATIONAL WEATHER SERVICE GOODLAND KS
1200 PM CST THU FEB 26 2015

NOTE:  "FAIR" INDICATES FEW OR NO CLOUDS BELOW 12,000 FEET WITH NO
SIGNIFICANT WEATHER AND/OR OBSTRUCTIONS TO VISIBILITY.

KSZ001>006-013>018-027>032-041>047-261900-
NORTHWEST KANSAS

CITY           SKY/WX    TMP DP  RH WIND       PRES   REMARKS
GOODLAND       CLOUDY    17   5  59 NE8       30.34R
6HR MIN TEMP:  13; 6HR MAX TEMP:  17; 6HR PCP: TRACE;

HAYS           SUNNY     18  -6  35 N16G26    30.45F WCI   3
HILL CITY      SUNNY     19  -1  41 N16G24    30.45F WCI   4
6HR MIN TEMP:   9; 6HR MAX TEMP:  19;

RUSSELL        SUNNY     17  -3  41 N16G26    30.45S WCI   2
6HR MIN TEMP:   7; 6HR MAX TEMP:  18;

$$

KSZ061>065-074>080-084>089-261900-
SOUTHWEST KANSAS

CITY           SKY/WX    TMP DP  RH WIND       PRES   REMARKS
DODGE CITY     PTSUNNY   20   2  45 N17G25    30.39S WCI   5
6HR MIN TEMP:  13; 6HR MAX TEMP:  20;

ELKHART          N/A     21  10  62 NE13        N/A  WCI   9
GARDEN CITY    PTSUNNY   19   5  54 NE17      30.38S WCI   4
6HR MIN TEMP:  13; 6HR MAX TEMP:  19;

GREAT BEND     SUNNY     19  -2  38 N18G26    30.45F WCI   4
LIBERAL        PTSUNNY   21   9  58 NE16      30.39S WCI   7
$$

KSZ066>073-081>083-090>101-261900-
SOUTHEAST KANSAS

CITY           SKY/WX    TMP DP  RH WIND       PRES   REMARKS
CHANUTE        FAIR      22   4  46 N15       30.43R WCI   9
6HR MIN TEMP:  13; 6HR MAX TEMP:  22;

COFFEYVILLE    SUNNY     24   4  42 N18G26    30.43F WCI  10
6HR MIN TEMP:  15; 6HR MAX TEMP:  24;

HUTCHINSON     SUNNY     21  -2  36 N21       30.45S WCI   5
6HR MIN TEMP:  10; 6HR MAX TEMP:  21;

MEDICINE LODGE   N/A     22  -1  36 N14G25    30.45S WCI   9
NEWTON         SUNNY     19  -2  38 N21G26    30.44S WCI   3
PARSONS        SUNNY     25   5  42 N15G28    30.44R WCI  13
6HR MIN TEMP:  14; 6HR MAX TEMP:  25;

WICHITA INTL   MOSUNNY   21  -3  35 N17G28    30.44F WCI   7
6HR MIN TEMP:  12; 6HR MAX TEMP:  22; 6HR PCP: TRACE;

WICHITA JABRA  SUNNY     22   0  38 N14G24    30.43F WCI   9
6HR MIN TEMP:  10; 6HR MAX TEMP:  22; 6HR PCP: TRACE;

WINFIELD       SUNNY     23   0  36 N20       30.45F WCI   8
6HR MIN TEMP:  14; 6HR MAX TEMP:  24;

$$

KSZ007>012-019>026-033>040-048>060-102>105-261900-
NORTHEAST KANSAS

CITY           SKY/WX    TMP DP  RH WIND       PRES   REMARKS
CONCORDIA      SUNNY     15  -2  46 N14G24    30.49R WCI   0
6HR MIN TEMP:   6; 6HR MAX TEMP:  15;

EMPORIA        SUNNY     19   1  45 N18G25    30.43S WCI   4
6HR MIN TEMP:   9; 6HR MAX TEMP:  19;

LAWRENCE       SUNNY     18   0  45 N20G30    30.46S WCI   2
6HR MIN TEMP:   9; 6HR MAX TEMP:  20;

MANHATTAN      SUNNY     17  -1  45 N14G25    30.50R WCI   3
6HR MIN TEMP:   8; 6HR MAX TEMP:  17;

OLATHE IND     SUNNY     19   1  45 N21G28    30.43R WCI   3
6HR MIN TEMP:   9; 6HR MAX TEMP:  19;

OLATHE EXE     SUNNY     18   1  47 N12G23    30.40S WCI   5
6HR MIN TEMP:   9; 6HR MAX TEMP:  18;

SALINA         SUNNY     19  -3  38 N16G25    30.50S WCI   4
6HR MIN TEMP:   9; 6HR MAX TEMP:  19;

TOPEKA BILLARD SUNNY     19   1  45 N15G25    30.48S WCI   5
6HR MIN TEMP:   9; 6HR MAX TEMP:  19;

TOPEKA FORBES  SUNNY     18   0  45 N13G23    30.44F WCI   5
6HR MIN TEMP:  10; 6HR MAX TEMP:  19;

$$



USA.gov is the U.S. government's official web portal to all federal, state and local government web resources and services.